User: anonymous   Login
Location: Caltech
(34.1382°N, 118.1253°W)
Time: 12:03:01
(UTC-07:00)
Language:

Cosmos 1508 Rocket - Orbit

View from above orbital plane
View from above orbital plane
View from above satellite
View from above satellite

Ground track
Ground track

The orbit data is extracted from the following two-line orbital elements,

1 14484U 83111B   15111.21898477  .00151220  55694-5  83802-3 0  9999
2 14484 082.8263 024.3483 0102984 223.7337 290.6703 15.71990813620163
Epoch (UTC): 21 April 2015 05:15:20
Eccentricity: 0.0102984
inclination: 82.8263°
perigee height: 284 km
apogee height: 422 km
right ascension of ascending node: 24.3483°
argument of perigee: 223.7337°
revolutions per day: 15.71990813
mean anomaly at epoch: 290.6703°
orbit number at epoch: 62016

The dashed part of the orbit path shows where the satellite is in the earth's shadow,  

DLR